Morrisville, VT

2:16 AM EST on November 15, 2019 (GMT -0500)
Morrisville Stowe State

Weather History for KMVL - September, 2019

Change the Weather History Date:

Wednesday, September 4, 2019

  Actual Average Record
Temperature  
Mean Temperature 66 °F 62 °F  
Max Temperature 77 °F 74 °F 93 °F (1999)
Min Temperature 55 °F 50 °F 37 °F (2000)
Degree Days  
Heating Degree Days 0 4  
Month to date heating degree days 13 16  
Since 1 July heating degree days 78 111  
Cooling Degree Days 1 1  
Month to date cooling degree days 1 4  
Year to date cooling degree days 244 251  
Growing Degree Days 16 (Base 50)    
Moisture  
Dew Point 58 °F    
Average Humidity 82    
Maximum Humidity 100    
Minimum Humidity 59    
Precipitation  
Precipitation 0.35 in 0.10 in 0.49 in (2012)
Month to date precipitation 1.44 0.38  
Year to date precipitation 28.67 24.14  
Sea Level Pressure  
Sea Level Pressure 29.86 in    
Wind  
Wind Speed 5 mph ()    
Max Wind Speed 21 mph    
Max Gust Speed 31 mph    
Visibility 8.8 miles    
Events Rain , Thunderstorm    
T = Trace of Precipitation, MM = Missing Value Source: Averaged Metar Reports

Daily Weather History Graph

Daily Weather History Graph

Search for Another Location

Airport or City:

Astronomy

Sep. 04, 2019 Rise Set
Actual Time 6:16 AM EDT 7:21 PM EDT
Civil Twilight 5:46 AM EDT 7:51 PM EDT
Nautical Twilight 5:10 AM EDT 8:27 PM EDT
Astronomical Twilight 4:32 AM EDT 9:04 PM EDT
Moon 12:28 PM EDT (9/4) 10:39 PM EDT (9/4)
Length of Visible Light 14h 05m
Length of Day
13h 05m
Waxing Crescent, 34% of the Moon is Illuminated
Sep 4
Waxing Crescent
Sep 5
First Quarter
Sep 14
Full
Sep 21
Last Quarter
Sep 28
New

Hourly Weather History & Observations

Time (EDT) Temp. Dew Point Humidity Pressure Visibility Wind Dir Wind Speed Gust Speed Precip Events Conditions
12:54 AM 57.9 °F 55.9 °F 93% 29.96 in 10.0 mi Calm Calm - N/A   Overcast
1:54 AM 57.9 °F 55.9 °F 93% 29.94 in 10.0 mi Calm Calm - N/A   Clear
2:54 AM 55.0 °F 54.0 °F 96% 29.89 in 10.0 mi Calm Calm - N/A   Mostly Cloudy
3:54 AM 55.9 °F 55.0 °F 97% 29.88 in 10.0 mi WNW 3.5 mph - N/A   Scattered Clouds
4:54 AM 55.0 °F 54.0 °F 96% 29.85 in 10.0 mi Calm Calm - N/A   Clear
5:54 AM 61.0 °F 57.0 °F 87% 29.84 in 10.0 mi South 5.8 mph - N/A   Partly Cloudy
6:54 AM 63.0 °F 57.9 °F 84% 29.84 in 10.0 mi SSW 4.6 mph - 0.00 in Rain Light Rain
7:54 AM 62.1 °F 60.1 °F 93% 29.85 in 10.0 mi South 4.6 mph - 0.03 in Rain Light Rain
8:54 AM 63.0 °F 61.0 °F 93% 29.82 in 10.0 mi SSE 4.6 mph - 0.01 in   Mostly Cloudy
9:22 AM 64.0 °F 61.0 °F 90% 29.81 in 10.0 mi SSW 5.8 mph - 0.00 in Rain , Thunderstorm Light Rain
9:54 AM 64.0 °F 60.1 °F 87% 29.84 in 2.0 mi Calm Calm - 0.08 in Rain , Thunderstorm Light Rain
10:01 AM 63.0 °F 60.1 °F 90% 29.83 in 1.0 mi SSW 6.9 mph - 0.06 in Rain , Thunderstorm Heavy Thunderstorms and Rain
10:05 AM 63.0 °F 60.1 °F 90% 29.84 in 2.0 mi SSW 9.2 mph - 0.08 in Rain , Thunderstorm Heavy Thunderstorms and Rain
10:12 AM 63.0 °F 60.1 °F 90% 29.86 in 3.0 mi South 9.2 mph - 0.15 in Rain , Thunderstorm Heavy Thunderstorms and Rain
10:34 AM 63.0 °F 61.0 °F 93% 29.82 in 5.0 mi South 5.8 mph - 0.22 in Rain Light Rain
10:54 AM 66.0 °F 63.0 °F 90% 29.80 in 10.0 mi SSW 5.8 mph - 0.22 in   Scattered Clouds
11:54 AM 71.1 °F 64.0 °F 78% 29.77 in 10.0 mi SW 12.7 mph 20.7 mph 0.00 in   Partly Cloudy
12:54 PM 71.1 °F 64.0 °F 78% 29.76 in 10.0 mi SSW 5.8 mph - N/A   Overcast
1:54 PM 75.0 °F 64.9 °F 71% 29.75 in 10.0 mi SW 12.7 mph 19.6 mph N/A   Partly Cloudy
2:54 PM 75.0 °F 63.0 °F 66% 29.75 in 10.0 mi SW 11.5 mph 25.3 mph N/A   Scattered Clouds
3:54 PM 75.0 °F 61.0 °F 62% 29.75 in 10.0 mi SW 10.4 mph 16.1 mph N/A   Scattered Clouds
4:54 PM 73.9 °F 59.0 °F 59% 29.79 in 10.0 mi NW 9.2 mph - 0.00 in   Mostly Cloudy
5:54 PM 70.0 °F 55.0 °F 59% 29.84 in 10.0 mi WNW 8.1 mph 19.6 mph N/A   Overcast
6:54 PM 68.0 °F 55.0 °F 63% 29.88 in 10.0 mi Variable 4.6 mph - N/A   Mostly Cloudy
7:54 PM 61.0 °F 57.0 °F 87% 29.95 in 10.0 mi Variable 6.9 mph - 0.01 in Rain Light Rain
8:24 PM 61.0 °F 55.9 °F 83% 29.96 in 10.0 mi NW 8.1 mph - 0.00 in   Overcast
8:54 PM 61.0 °F 54.0 °F 78% 29.98 in 10.0 mi NNW 10.4 mph - 0.00 in   Overcast
9:54 PM 60.1 °F 50.0 °F 69% 30.00 in 10.0 mi NW 19.6 mph 31.1 mph N/A   Partly Cloudy
10:54 PM 57.9 °F 48.0 °F 70% 30.03 in 10.0 mi NNW 16.1 mph 27.6 mph N/A   Mostly Cloudy
11:54 PM 57.0 °F 46.0 °F 67% 30.06 in 10.0 mi North 10.4 mph - N/A   Mostly Cloudy